• In United Kingdom
  • List of Countries
  • For 7 days
  • Water Temperature
  • Satellite Maps
  • Weather Map
  • Weather Widgets
  • user-avatar
    Login

    Hourly Weather Biskira

    Today, 20 October, Friday

    Time Temperature Precipitation Wind Pressure Humidity
    00:00 +20°C° 0 mm 2 mps 751 mmHg 68%
    01:00 +20°C° 1.4 mm 2 mps 751 mmHg 71%
    02:00 +20°C° 1.4 mm 2 mps 751 mmHg 73%
    03:00 +19°C° 1.4 mm 2 mps 751 mmHg 75%
    04:00 +19°C° 0.2 mm 2 mps 751 mmHg 74%
    05:00 +19°C° 0.2 mm 2 mps 751 mmHg 73%
    06:00 +19°C° 0 mm 2 mps 751 mmHg 72%
    07:00 +20°C° 0.1 mm 3 mps 751 mmHg 66%
    08:00 +21°C° 0.1 mm 3 mps 751 mmHg 60%
    09:00 +21°C° 0.1 mm 4 mps 751 mmHg 54%
    10:00 +22°C° 0.5 mm 4 mps 752 mmHg 51%
    11:00 +23°C° 0.5 mm 4 mps 752 mmHg 47%
    12:00 +25°C° 0.5 mm 5 mps 752 mmHg 44%
    13:00 +25°C° 0.3 mm 5 mps 752 mmHg 44%
    14:00 +25°C° 0.3 mm 5 mps 752 mmHg 44%
    15:00 +25°C° 0.3 mm 5 mps 752 mmHg 44%
    16:00 +25°C° 0 mm 5 mps 752 mmHg 46%
    17:00 +23°C° 0 mm 4 mps 753 mmHg 48%
    18:00 +23°C° 0 mm 4 mps 753 mmHg 50%
    19:00 +22°C° 0 mm 4 mps 754 mmHg 52%
    20:00 +22°C° 0 mm 4 mps 754 mmHg 54%
    21:00 +21°C° 0 mm 4 mps 755 mmHg 56%
    22:00 +21°C° 0 mm 4 mps 755 mmHg 57%
    23:00 +21°C° 0 mm 4 mps 755 mmHg 59%

    Tomorrow, 21 October, Saturday

    Time Temperature Precipitation Wind Pressure Humidity
    00:00 +21°C° 0 mm 4 mps 755 mmHg 60%
    01:00 +20°C° 0 mm 4 mps 755 mmHg 61%
    02:00 +20°C° 0 mm 4 mps 755 mmHg 62%
    03:00 +20°C° 0 mm 4 mps 755 mmHg 63%
    04:00 +20°C° 0 mm 4 mps 755 mmHg 64%
    05:00 +20°C° 0 mm 4 mps 755 mmHg 65%
    06:00 +19°C° 0 mm 4 mps 756 mmHg 65%
    07:00 +21°C° 0 mm 3 mps 756 mmHg 60%
    08:00 +22°C° 0 mm 3 mps 757 mmHg 55%
    09:00 +24°C° 0 mm 3 mps 757 mmHg 51%
    10:00 +25°C° 0 mm 3 mps 757 mmHg 47%
    11:00 +26°C° 0 mm 3 mps 757 mmHg 44%
    12:00 +27°C° 0 mm 3 mps 757 mmHg 41%
    13:00 +27°C° 0 mm 3 mps 756 mmHg 40%
    14:00 +28°C° 0 mm 3 mps 756 mmHg 40%
    15:00 +28°C° 0 mm 2 mps 756 mmHg 39%
    16:00 +27°C° 0 mm 2 mps 756 mmHg 41%
    17:00 +27°C° 0 mm 2 mps 756 mmHg 44%
    18:00 +26°C° 0 mm 2 mps 756 mmHg 46%
    19:00 +25°C° 0 mm 1 mps 757 mmHg 48%
    20:00 +25°C° 0 mm 1 mps 757 mmHg 50%
    21:00 +23°C° 0 mm 0 mps 758 mmHg 51%
    22:00 +24°C° 0 mm 1 mps 758 mmHg 52%
    23:00 +24°C° 0 mm 1 mps 758 mmHg 53%

    Day after tomorrow, 22 October, Sunday

    Time Temperature Precipitation Wind Pressure Humidity
    00:00 +23°C° 0 mm 1 mps 757 mmHg 54%
    01:00 +23°C° 0 mm 1 mps 757 mmHg 55%
    02:00 +23°C° 0 mm 1 mps 757 mmHg 56%
    03:00 +23°C° 0 mm 1 mps 757 mmHg 57%
    04:00 +22°C° 0 mm 1 mps 757 mmHg 59%
    05:00 +22°C° 0 mm 1 mps 757 mmHg 60%
    06:00 +20°C° 0 mm 0 mps 757 mmHg 61%
    07:00 +23°C° 0 mm 1 mps 757 mmHg 57%
    08:00 +24°C° 0 mm 1 mps 758 mmHg 52%
    09:00 +25°C° 0 mm 1 mps 758 mmHg 47%
    10:00 +26°C° 0 mm 1 mps 758 mmHg 45%
    11:00 +27°C° 0 mm 1 mps 757 mmHg 43%
    12:00 +27°C° 0 mm 1 mps 757 mmHg 41%
    13:00 +28°C° 0 mm 1 mps 756 mmHg 40%
    14:00 +28°C° 0 mm 1 mps 756 mmHg 38%
    15:00 +28°C° 0 mm 2 mps 755 mmHg 37%
    16:00 +28°C° 0 mm 2 mps 755 mmHg 39%
    17:00 +27°C° 0 mm 2 mps 756 mmHg 41%
    18:00 +27°C° 0 mm 2 mps 756 mmHg 43%
    19:00 +26°C° 0 mm 2 mps 756 mmHg 45%
    20:00 +26°C° 0 mm 2 mps 757 mmHg 46%
    21:00 +25°C° 0 mm 1 mps 757 mmHg 48%
    22:00 +25°C° 0 mm 2 mps 757 mmHg 50%
    23:00 +25°C° 0 mm 2 mps 757 mmHg 51%

    23 October, Monday

    Time Temperature Precipitation Wind Pressure Humidity
    00:00 +24°C° 0 mm 3 mps 756 mmHg 53%
    01:00 +24°C° 0 mm 3 mps 756 mmHg 55%
    02:00 +22°C° 0 mm 3 mps 756 mmHg 57%
    03:00 +22°C° 0 mm 3 mps 756 mmHg 60%
    04:00 +22°C° 0 mm 3 mps 756 mmHg 61%
    05:00 +21°C° 0 mm 3 mps 756 mmHg 62%
    06:00 +21°C° 0 mm 3 mps 756 mmHg 63%
    07:00 +22°C° 0 mm 3 mps 756 mmHg 58%
    08:00 +24°C° 0 mm 3 mps 757 mmHg 53%
    09:00 +25°C° 0 mm 3 mps 757 mmHg 49%
    10:00 +26°C° 0 mm 3 mps 757 mmHg 46%
    11:00 +27°C° 0 mm 3 mps 756 mmHg 43%
    12:00 +28°C° 0 mm 3 mps 756 mmHg 40%
    13:00 +28°C° 0 mm 3 mps 756 mmHg 39%
    14:00 +28°C° 0 mm 3 mps 756 mmHg 37%
    15:00 +28°C° 0 mm 3 mps 755 mmHg 36%
    16:00 +28°C° 0 mm 3 mps 756 mmHg 37%
    17:00 +27°C° 0 mm 3 mps 756 mmHg 39%
    18:00 +26°C° 0 mm 3 mps 756 mmHg 40%
    19:00 +25°C° 0 mm 3 mps 756 mmHg 41%
    20:00 +25°C° 0 mm 3 mps 757 mmHg 42%
    21:00 +24°C° 0 mm 3 mps 757 mmHg 43%
    22:00 +22°C° 0 mm 3 mps 757 mmHg 44%
    23:00 +22°C° 0 mm 4 mps 757 mmHg 46%

    24 October, Tuesday

    Time Temperature Precipitation Wind Pressure Humidity
    00:00 +21°C° 0 mm 4 mps 757 mmHg 47%
    01:00 +21°C° 0 mm 3 mps 757 mmHg 48%
    02:00 +20°C° 0 mm 3 mps 757 mmHg 48%
    03:00 +20°C° 0 mm 3 mps 757 mmHg 49%
    04:00 +20°C° 0 mm 3 mps 757 mmHg 50%
    05:00 +19°C° 0 mm 3 mps 757 mmHg 50%
    06:00 +19°C° 0 mm 2 mps 757 mmHg 50%
    07:00 +20°C° 0 mm 2 mps 757 mmHg 46%
    08:00 +23°C° 0 mm 2 mps 757 mmHg 42%
    09:00 +24°C° 0 mm 2 mps 758 mmHg 38%
    10:00 +25°C° 0 mm 2 mps 757 mmHg 35%
    11:00 +26°C° 0 mm 2 mps 757 mmHg 32%
    12:00 +27°C° 0 mm 2 mps 756 mmHg 29%
    13:00 +27°C° 0 mm 3 mps 756 mmHg 27%
    14:00 +28°C° 0 mm 3 mps 755 mmHg 26%
    15:00 +28°C° 0 mm 3 mps 755 mmHg 24%
    16:00 +27°C° 0 mm 3 mps 755 mmHg 26%
    17:00 +27°C° 0 mm 2 mps 755 mmHg 28%
    18:00 +26°C° 0 mm 2 mps 755 mmHg 31%
    19:00 +25°C° 0 mm 2 mps 756 mmHg 31%
    20:00 +25°C° 0 mm 2 mps 756 mmHg 31%
    21:00 +25°C° 0 mm 2 mps 756 mmHg 32%
    22:00 +24°C° 0 mm 2 mps 756 mmHg 33%
    23:00 +24°C° 0 mm 2 mps 756 mmHg 34%

    25 October, Wednesday

    Time Temperature Precipitation Wind Pressure Humidity
    00:00 +23°C° 0 mm 2 mps 755 mmHg 35%
    01:00 +23°C° 0 mm 2 mps 755 mmHg 35%
    02:00 +22°C° 0 mm 1 mps 755 mmHg 35%
    03:00 +22°C° 0 mm 1 mps 755 mmHg 35%
    04:00 +22°C° 0 mm 1 mps 755 mmHg 36%
    05:00 +22°C° 0 mm 1 mps 755 mmHg 36%
    06:00 +21°C° 0 mm 1 mps 755 mmHg 36%
    07:00 +23°C° 0 mm 1 mps 755 mmHg 33%
    08:00 +24°C° 0 mm 1 mps 756 mmHg 29%
    09:00 +26°C° 0 mm 1 mps 756 mmHg 26%
    10:00 +27°C° 0 mm 1 mps 756 mmHg 25%
    11:00 +28°C° 0 mm 1 mps 755 mmHg 24%
    12:00 +28°C° 0 mm 2 mps 755 mmHg 23%
    13:00 +29°C° 0 mm 2 mps 755 mmHg 22%
    14:00 +29°C° 0 mm 2 mps 755 mmHg 21%
    15:00 +29°C° 0 mm 2 mps 754 mmHg 21%
    16:00 +28°C° 0 mm 1 mps 755 mmHg 24%
    17:00 +27°C° 0 mm 1 mps 755 mmHg 27%
    18:00 +26°C° 0 mm 1 mps 755 mmHg 30%
    19:00 +25°C° 0 mm 1 mps 756 mmHg 31%
    20:00 +25°C° 0 mm 1 mps 756 mmHg 33%
    21:00 +24°C° 0 mm 1 mps 757 mmHg 34%
    22:00 +24°C° 0 mm 1 mps 757 mmHg 35%
    23:00 +23°C° 0 mm 2 mps 757 mmHg 36%
    Show more